Погода в Новониколаевке

Россия / Волгоградская область     50°11′54″N   45°06′07″E
темп.,
°C
ветер,
м/с
пор.,
м/с
влажн.,
%
обл.,
%
осадки,
мм/ч
давл.,
гПа
погр.,
м
22 апреля, чт
чт2200:00+9юз22855 0.1 102032
03:00+7юз22865 0.1 102110
06:00+8ююз22825 0.0 102223
09:00+13юз236217 0.0 1022546
12:00+16ююз445010 0.4 10221614
15:00+15ююз4553100 1.0 1022943
18:00+15зюз2259100 0.1 102220
21:00+12ссз1166100 0.1 102310
23 апреля, пт
пт2300:00+10всв11685 0.0 102310
03:00+9всв2272100 0.0 102210
06:00+9всв3681100 0.0 1022127
09:00+11вюв5780100 0.2 1022329
12:00+13вюв5667100 0.1 1021492
15:00+14юв2256100 0.4 10191111
18:00+13св346990 0.6 1018156
21:00+11всв357575 0.9 1018114
24 апреля, сб
сб2400:00+10в248063 0.0 1016123
03:00+8юв238472 0.0 101565
06:00+8ююв2387100 0.0 1015115
09:00+12ююз5769100 0.3 1014647
12:00+15юз91153100 0.6 10121643
15:00+12з91274100 1.3 10131040
18:00+10з6970100 0.1 10131327
21:00+7юз397917 0.1 1015234
25 апреля, вс
вс2500:00+6зюз5127985 0.1 1015418
03:00+5зюз713816 0.1 1016477
06:00+4з611840 0.0 1018722
09:00+7з810585 0.0 10191042
12:00+10з68425 0.0 10201700
15:00+11з563581 0.0 10202266
18:00+10зюз3545100 0.0 1020218
21:00+7зюз2251100 0.0 102111
26 апреля, пн
пн2600:00+7сз1153100 0.0 102010
03:00+6св1155100 0.0 102010
06:00+6в2360100 0.0 101978
09:00+10вюв3448100 0.0 1018755
12:00+12юв4439100 0.0 10171939
15:00+13ююв333878 0.0 10151992
18:00+11ю345020 0.0 1014255
21:00+7ююз510795 0.0 1014298